Location: ????????
(60.5616°N, 46.8254°E)
Time: 09:34:15
(UTC+00:00)

Cosmos 2322 - Pass Details

Date: 18 February 2020
Orbit: 840 x 855 km, 71.0° (Epoch: 27 March)

Event Time Altitude Azimuth Distance (km) Brightness Sun altitude
Exits shadow 23:49:42 53° 45° (NE) 1,029 4.3 -32.6°
Drops below altitude 10° 23:54:00 10° 41° (NE) 2,475 7.0 -32.2°
Sets 23:56:27 0° 41° (NE) 3,415 7.9 -32.0°
